User: anonymous   Login
Location: Unspecified
(0.0000°N, 0.0000°E)
Time: 20:09:29
(UTC+00:00)
Language:

TIANWANG 1A (TW-1A) - Orbit

View from above orbital plane
View from above orbital plane
View from above satellite
View from above satellite

Ground track
Ground track

The orbit data is extracted from the following two-line orbital elements,

1 40928U 15051D   22268.57683110  .00065056  00000-0  56997-3 0  9997
2 40928  97.0326 290.8839 0006172  33.7344  87.4081 15.68657688393880
Epoch (UTC): 25 September 2022 13:50:38
Eccentricity: 0.0006172
inclination: 97.0326°
perigee height: 358 km
apogee height: 367 km
right ascension of ascending node: 290.8839°
argument of perigee: 33.7344°
revolutions per day: 15.68657688
mean anomaly at epoch: 87.4081°
orbit number at epoch: 39388

The dashed part of the orbit path shows where the satellite is in the earth's shadow,  

DLR